Simultaneous Nadir Overpasses (SNOs) Predictions

Prediction of SNOs between GOES-15 and METOP-C Satellite Orbit:

Table of predicted SNOs for the next 14.0 days since TLE Epoch: 8/9/2019
Index Date Time (GOES-15) GOES-15 Lat,Lon METOP-C Lat,Lon Distance(km) Time Diff (sec)
1 08/11/2019 06:23:41 -0.05,-128.40 -0.99,-132.72 491.44 80
2 08/12/2019 06:00:21 -0.02,-128.41 0.12,-127.72 77.65 80
3 08/13/2019 18:21:53 0.06,-128.43 0.92,-132.28 438.93 80
4 08/14/2019 17:58:34 0.03,-128.44 -0.25,-127.30 130.40 80
5 08/16/2019 06:20:14 -0.07,-128.44 -0.86,-131.88 392.13 80
6 08/17/2019 05:56:55 -0.04,-128.44 0.31,-126.89 176.59 80
7 08/18/2019 18:18:26 0.08,-128.46 0.72,-131.45 340.69 80
8 08/19/2019 17:55:07 0.05,-128.46 -0.39,-126.46 228.30 80
9 08/21/2019 06:16:47 -0.09,-128.46 -0.66,-131.05 294.57 80
10 08/22/2019 05:53:29 -0.06,-128.46 0.50,-126.06 273.65 80
11 08/23/2019 18:14:59 0.11,-128.46 0.58,-130.61 244.95 80




NCC Satellite Simultaneous Nadir Overpasses (SNOs) Prediction Service
